Regional Weather Roundup
Issued by NWS

Home | Current Version | Previous Version | Graphics & Text | Print | Product List | Glossary On
Versions: 1 2 3 4 5 6 7 8 9 10 11 12 13 14 15 16 17 18 19 20 21 22 23 24 25 26 27 28 29 30 31 32 33 34 35 36 37 38 39 40 41 42 43 44 45 46 47 48 49 50
650
ASUS45 KCYS 051110
RWRWY

WYOMING REGIONAL WEATHER ROUNDUP
NATIONAL WEATHER SERVICE CHEYENNE WY
400 AM MST FRI FEB 05 2016

NOTE:  "FAIR" INDICATES FEW OR NO CLOUDS BELOW 12,000 FEET
WITH NO SIGNIFICANT WEATHER AND/OR OBSTRUCTIONS TO VISIBILITY.

WYZ001-051200-
YELLOWSTONE NATIONAL PARK

CITY           SKY/WX    TMP DP  RH WIND       PRES   REMARKS
LK YELLOWSTONE   N/A      8   4  83 CALM      30.34R
W YELLOWSTONE  NOT AVBL

$$
WYZ002>013-054>058-071-098>099-051200-
NORTHERN WYOMING

CITY           SKY/WX    TMP DP  RH WIND       PRES   REMARKS
JACKSON        FAIR       7   7 100 NE5       30.38R WCI  -2
CODY           FAIR      28   9  43 W9        30.25R WCI  20
GREYBULL       MOCLDY    17  12  80 CALM      30.30R
WORLAND        CLOUDY    16  10  77 S6        30.30R WCI   7
SHERIDAN       MOCLDY    31  18  58 NW12      30.22R WCI  22
BUFFALO          N/A     29  16  58 MISG      30.18R
GILLETTE       MOCLDY    29  24  82 W14       30.18R WCI  18
HULETT         LGT SNOW  32  28  86 W12       30.15R WCI  23
NEWCASTLE      FLURRIES  30  25  80 NW21G30   30.16F WCI  17

$$
WYZ014>020-022>026-101>103-051200-
CENTRAL WYOMING

CITY           SKY/WX    TMP DP  RH WIND       PRES   REMARKS
BIG PINEY      FAIR       7   2  80 N10       30.32R WCI  -8
PINEDALE       FAIR      12   5  73 W20       30.30S WCI  -6
DUBOIS         PTSUNNY   19   9  63 W20G30    30.26R WCI   4
LANDER         FAIR      15   1  53 S3        30.26R
RIVERTON       FAIR      22   8  55 NW14      30.26R WCI   9
CASPER         FAIR      19   7  59 SW13      30.24R WCI   6
DOUGLAS        CLOUDY    21  12  68 NW10      30.23R WCI  10

$$
WYZ021-027>030-104>119-051200-
SOUTHERN WYOMING

CITY           SKY/WX    TMP DP  RH WIND       PRES   REMARKS
EVANSTON       CLOUDY    16  13  88 W12       30.38S WCI   3
FORT BRIDGER   CLOUDY    19  19 100 W16       30.39R WCI   5
ROCK SPRINGS   FAIR      13   8  81 W16       30.32R WCI  -3
DIXON          FLURRIES  18  14  84 SW5       30.36R WCI  11
RAWLINS        FAIR      11   5  77 SW20      30.26R WCI  -7
SARATOGA       FAIR      16   9  73 W3        30.27S
LARAMIE        CLOUDY    13   3  64 N6        30.20R WCI   4
CHEYENNE       FAIR      23   8  52 NW17G25   30.18R WCI   9
TORRINGTON     FAIR      23  14  68 W9        30.22R WCI  13
PINE BLUFFS    PTSUNNY   25  16  68 NW20      30.20R WCI  11

$$




USA.gov is the U.S. government's official web portal to all federal, state and local government web resources and services.